Weather in Dohuk

Iraq     36°51′29″N   43°00′17″E
temp.,
°C
wind,
m/s
gust,
m/s
humid.,
%
clouds,
%
prec.,
mm/h
press.,
hPa
HPBL,
m
26 february, fri
fri2600:00+8ne22570 0.0 102322
03:00+6nne22510 0.0 102323
06:00+5nne22460 0.0 102323
09:00+9nne11390 0.0 1023137
12:00+13wsw22380 0.0 1022745
15:00+14w33390 0.0 10201117
18:00+11w22490 0.0 102022
21:00+9nne11550 0.0 102122
27 february, sat
sat2700:00+8nne11540 0.0 102122
03:00+7ne22520 0.0 102022
06:00+6nne11470 0.0 102022
09:00+11n11390 0.0 1020127
12:00+14sw21370 0.0 1018771
15:00+15ssw22340 0.0 10161093
18:00+11ssw00470 0.0 101722
21:00+9ne11500 0.0 101722
28 february, sun
sun2800:00+8ne11520 0.0 101822
03:00+8ne12530 0.0 101722
06:00+7ne12520 0.0 101722
09:00+11ene11450 0.0 1018140
12:00+14s32390 0.0 10161078
15:00+15sw22360 0.0 10151437
18:00+11w01490 0.0 101522
21:00+10ene12510 0.0 101722
1 march, mon
mon100:00+9ne12520 0.0 101722
03:00+8ne12540 0.0 101822
06:00+7ne12560 0.0 101822
09:00+12e12480 0.0 1019182
12:00+15se224126 0.0 1018962
15:00+16s223652 0.0 10161705
18:00+12e335160 0.0 101633
21:00+12e445063 0.0 101880
2 march, tue
tue200:00+10ene565866 0.1 1018103
03:00+10ese595680 0.1 1018148
06:00+10e4857100 0.0 1018160
09:00+12n2361100 0.0 1019372
12:00+15se564782 0.0 10181374
15:00+16ese464489 0.2 10161893
18:00+12nne456536 0.2 101797
21:00+10ne237120 0.3 101833